Temp
-22 -22 -22 -22 -22 -22 -22 -21 -21 -21 -21 -21 -21 -19 -18 -19 -18 -18 -18 -18 -19 -20 -18 -21 -21 -22 -21 -20 -20 -21 -20 -20 -21 -21 -21 -20 -21 -21 -21 -21 -21 -21 -21 -20
-23 -23 -23 -22 -23 -23 -23 -22 -22 -21 -22 -22 -21 -21 -20 -20 -19 -19 -20 -20 -20 -21 -21 -21 -20 -21 -20 -20 -21 -21 -20 -21 -21 -21 -21 -21 -21 -21 -21 -21 -21 -21 -21 -21
-24 -24 -24 -23 -23 -23 -24 -23 -23 -22 -22 -21 -21 -21 -21 -21 -21 -21 -20 -21 -21 -22 -21 -21 -21 -21 -21 -21 -21 -22 -21 -22 -22 -22 -23 -22 -22 -22 -22 -22 -22 -22 -21 -22
-25 -25 -25 -24 -24 -24 -25 -24 -23 -23 -22 -21 -21 -22 -22 -21 -21 -21 -22 -22 -22 -22 -22 -21 -21 -22 -21 -21 -21 -22 -22 -22 -22 -22 -22 -23 -22 -22 -22 -22 -22 -22 -21 -22
-26 -26 -26 -25 -25 -25 -26 -25 -24 -23 -23 -23 -22 -22 -22 -22 -22 -22 -22 -23 -23 -23 -22 -23 -23 -22 -22 -22 -21 -23 -23 -22 -23 -23 -23 -23 -22 -22 -22 -22 -22 -22 -22 -22
-27 -27 -26 -26 -26 -25 -26 -25 -25 -24 -24 -23 -23 -23 -22 -22 -23 -22 -23 -24 -23 -23 -23 -23 -22 -22 -22 -22 -22 -23 -23 -23 -23 -23 -23 -23 -22 -22 -22 -22 -22 -23 -22 -23
-28 -28 -26 -27 -26 -26 -26 -26 -26 -25 -25 -24 -24 -24 -23 -23 -24 -24 -23 -23 -23 -23 -23 -24 -23 -23 -23 -23 -23 -23 -24 -24 -24 -23 -23 -23 -22 -22 -23 -22 -23 -23 -24 -24
-28 -28 -27 -27 -27 -26 -26 -27 -26 -27 -26 -26 -25 -24 -24 -25 -25 -24 -24 -23 -23 -23 -24 -24 -24 -24 -23 -23 -24 -24 -24 -24 -24 -23 -23 -23 -23 -23 -23 -23 -23 -24 -24 -24
-28 -27 -27 -27 -27 -27 -27 -27 -27 -27 -27 -26 -25 -25 -25 -25 -25 -25 -24 -24 -24 -24 -24 -24 -24 -24 -24 -24 -24 -24 -24 -24 -24 -23 -23 -23 -24 -23 -22 -23 -23 -23 -24 -24
-28 -28 -27 -27 -27 -27 -28 -27 -28 -28 -27 -27 -26 -25 -25 -25 -26 -25 -25 -25 -25 -25 -25 -25 -25 -25 -25 -24 -24 -24 -24 -24 -24 -24 -23 -23 -23 -23 -24 -24 -24 -24 -24 -24
-29 -28 -28 -27 -28 -28 -28 -28 -28 -28 -28 -27 -27 -26 -26 -27 -26 -26 -25 -25 -25 -25 -25 -25 -25 -25 -25 -25 -25 -24 -24 -24 -24 -24 -24 -23 -24 -23 -24 -24 -24 -24 -24 -24
-29 -28 -28 -27 -28 -28 -28 -28 -28 -28 -28 -28 -28 -28 -27 -26 -26 -26 -25 -25 -25 -26 -26 -25 -26 -25 -25 -25 -24 -24 -24 -24 -24 -25 -24 -23 -24 -23 -24 -24 -24 -24 -24 -24
-29 -28 -28 -28 -28 -28 -29 -29 -29 -29 -28 -28 -28 -28 -28 -28 -27 -26 -27 -26 -26 -26 -26 -26 -26 -26 -25 -25 -24 -24 -24 -24 -24 -24 -24 -25 -24 -24 -24 -24 -24 -24 -24 -24
-29 -29 -28 -28 -28 -29 -29 -29 -28 -29 -29 -28 -29 -28 -28 -28 -28 -28 -27 -27 -27 -26 -26 -26 -26 -26 -25 -25 -25 -24 -25 -24 -25 -24 -24 -25 -25 -25 -24 -25 -24 -24 -24 -24
-29 -28 -29 -29 -29 -29 -29 -29 -29 -29 -29 -29 -28 -29 -29 -28 -28 -28 -28 -27 -27 -27 -27 -27 -26 -26 -25 -25 -25 -24 -25 -25 -25 -25 -25 -25 -25 -25 -25 -25 -25 -25 -25 -25
-29 -29 -29 -28 -29 -29 -29 -29 -29 -29 -29 -29 -29 -29 -29 -29 -29 -28 -28 -28 -27 -28 -27 -26 -26 -25 -25 -25 -24 -24 -25 -25 -26 -25 -25 -24 -24 -25 -25 -25 -25 -25 -24 -25
-29 -29 -29 -29 -29 -29 -30 -30 -30 -30 -30 -30 -29 -29 -29 -29 -29 -28 -28 -28 -27 -27 -27 -26 -26 -25 -25 -24 -24 -25 -25 -26 -25 -25 -25 -24 -25 -25 -25 -25 -25 -25 -25 -25
-29 -29 -29 -29 -29 -29 -30 -30 -30 -30 -30 -30 -29 -29 -30 -29 -29 -29 -28 -28 -28 -27 -26 -26 -26 -26 -25 -23 -24 -25 -26 -26 -25 -25 -25 -25 -25 -25 -25 -25 -25 -25 -25 -25
-30 -30 -29 -29 -29 -30 -30 -31 -31 -30 -30 -30 -30 -30 -30 -30 -29 -29 -29 -28 -28 -27 -27 -26 -26 -26 -24 -25 -25 -26 -26 -25 -25 -25 -25 -25 -25 -25 -25 -25 -25 -25 -25 -25
-31 -31 -31 -31 -31 -32 -32 -31 -31 -31 -31 -31 -30 -30 -30 -30 -30 -29 -29 -29 -28 -27 -27 -27 -26 -25 -25 -26 -26 -26 -25 -26 -25 -25 -25 -26 -25 -25 -25 -25 -25 -25 -25 -25
-31 -31 -31 -31 -31 -31 -31 -31 -31 -31 -31 -30 -30 -30 -30 -30 -29 -29 -29 -29 -28 -27 -27 -27 -26 -25 -27 -26 -26 -26 -26 -26 -25 -25 -25 -25 -25 -25 -25 -25 -25 -25 -25 -25
-31 -31 -31 -31 -31 -31 -31 -31 -31 -30 -30 -29 -30 -29 -30 -30 -29 -29 -29 -29 -29 -28 -27 -27 -26 -28 -27 -27 -26 -26 -26 -26 -25 -25 -26 -26 -25 -25 -25 -25 -25 -25 -25 -25
-32 -32 -33 -33 -32 -32 -31 -32 -31 -31 -31 -31 -30 -30 -30 -30 -29 -29 -29 -29 -28 -28 -28 -27 -27 -28 -27 -27 -27 -26 -26 -26 -26 -26 -26 -25 -25 -25 -25 -25 -25 -25 -25 -25
-32 -32 -32 -33 -33 -33 -33 -32 -32 -32 -31 -31 -30 -30 -30 -30 -30 -30 -29 -28 -28 -28 -28 -28 -28 -27 -27 -26 -26 -26 -26 -26 -25 -25 -25 -25 -25 -25 -25 -25 -25 -25 -25 -25
-33 -33 -34 -33 -33 -32 -33 -32 -31 -31 -31 -30 -30 -30 -30 -30 -29 -29 -28 -28 -28 -27 -27 -28 -27 -27 -26 -26 -26 -26 -26 -26 -25 -25 -25 -25 -25 -25 -25 -25 -25 -25 -25 -25
-33 -33 -32 -32 -32 -31 -31 -31 -31 -31 -32 -31 -30 -30 -30 -30 -29 -28 -28 -27 -26 -26 -27 -27 -27 -27 -27 -26 -26 -26 -26 -26 -26 -26 -25 -25 -25 -25 -25 -26 -26 -26 -26 -26
-31 -32 -31 -31 -31 -30 -31 -31 -31 -31 -30 -30 -30 -30 -30 -29 -28 -27 -27 -27 -27 -27 -28 -28 -27 -26 -26 -27 -26 -26 -26 -26 -26 -26 -25 -25 -25 -26 -26 -26 -26 -26 -26 -26
Height
5543 5552 5560 5568 5574 5579 5581 5585 5591 5602 5603 5604 5609 5619 5631 5629 5634 5640 5642 5644 5646 5648 5648 5652 5654 5655 5655 5660 5664 5663 5663 5664 5667 5667 5665 5666 5666 5666 5664 5660 5662 5658 5654 5658
5524 5533 5542 5550 5557 5564 5565 5571 5576 5586 5587 5589 5600 5608 5615 5616 5621 5628 5630 5631 5634 5636 5639 5643 5646 5645 5649 5652 5653 5652 5655 5656 5658 5658 5657 5657 5656 5656 5656 5654 5652 5652 5648 5647
5506 5516 5524 5532 5541 5547 5550 5555 5560 5571 5572 5583 5591 5596 5602 5605 5610 5615 5619 5621 5622 5624 5627 5633 5635 5637 5640 5642 5642 5646 5646 5647 5649 5650 5650 5647 5646 5647 5644 5643 5641 5641 5639 5634
5489 5499 5509 5516 5525 5532 5533 5538 5549 5559 5564 5575 5580 5582 5591 5596 5599 5604 5608 5608 5611 5615 5619 5622 5624 5626 5629 5631 5634 5636 5638 5639 5639 5640 5639 5639 5639 5638 5637 5635 5633 5628 5631 5622
5472 5484 5493 5501 5510 5515 5516 5526 5540 5545 5555 5561 5565 5569 5578 5583 5589 5593 5597 5597 5600 5603 5608 5612 5617 5618 5620 5623 5625 5627 5628 5629 5630 5630 5630 5630 5630 5630 5629 5627 5625 5620 5618 5615
5457 5469 5481 5491 5495 5500 5502 5517 5525 5534 5544 5548 5552 5560 5569 5573 5575 5582 5586 5588 5589 5593 5598 5602 5603 5609 5611 5614 5616 5618 5620 5621 5620 5621 5620 5620 5621 5622 5620 5618 5615 5610 5606 5604
5445 5456 5469 5479 5482 5489 5498 5507 5517 5524 5530 5536 5545 5550 5556 5561 5569 5570 5576 5576 5579 5582 5590 5595 5597 5599 5601 5604 5607 5609 5611 5612 5612 5612 5612 5611 5613 5612 5610 5609 5606 5602 5597 5595
5433 5446 5455 5468 5474 5480 5490 5497 5504 5513 5520 5528 5533 5540 5544 5549 5554 5556 5562 5566 5570 5578 5582 5585 5587 5590 5592 5595 5598 5600 5603 5603 5604 5603 5605 5606 5603 5602 5602 5600 5601 5594 5589 5585
5420 5434 5446 5457 5466 5472 5481 5487 5494 5501 5510 5518 5524 5529 5533 5538 5543 5548 5553 5560 5562 5567 5571 5574 5577 5581 5585 5586 5589 5593 5595 5596 5596 5597 5598 5597 5596 5595 5594 5592 5590 5585 5581 5578
5407 5421 5435 5448 5458 5465 5474 5481 5489 5494 5501 5506 5514 5520 5527 5532 5537 5542 5545 5550 5555 5558 5562 5567 5570 5573 5576 5579 5582 5586 5587 5587 5588 5589 5588 5589 5590 5587 5586 5584 5584 5577 5574 5571
5399 5414 5428 5442 5451 5459 5466 5477 5484 5487 5493 5499 5504 5513 5517 5524 5529 5534 5538 5543 5546 5551 5555 5560 5563 5565 5569 5573 5576 5578 5579 5579 5580 5581 5581 5583 5581 5580 5579 5577 5573 5569 5567 5565
5394 5410 5423 5431 5444 5453 5463 5470 5476 5479 5487 5494 5498 5503 5508 5515 5521 5527 5531 5535 5540 5544 5548 5553 5555 5558 5562 5564 5567 5569 5571 5572 5573 5575 5575 5574 5573 5572 5570 5568 5565 5562 5560 5558
5393 5406 5416 5428 5437 5448 5458 5464 5470 5476 5483 5489 5492 5497 5503 5508 5513 5519 5525 5530 5535 5538 5542 5546 5549 5551 5554 5556 5559 5560 5562 5564 5564 5566 5568 5566 5564 5563 5561 5560 5557 5555 5553 5552
5390 5402 5414 5424 5433 5443 5452 5458 5464 5468 5477 5483 5486 5491 5497 5503 5508 5513 5518 5523 5527 5531 5534 5537 5540 5543 5545 5548 5550 5553 5554 5555 5557 5557 5558 5557 5556 5555 5554 5552 5549 5548 5547 5545
5388 5399 5411 5421 5428 5438 5446 5453 5459 5466 5473 5479 5485 5488 5492 5497 5502 5507 5512 5516 5521 5524 5527 5529 5532 5535 5537 5540 5542 5543 5545 5547 5548 5550 5549 5549 5550 5548 5546 5544 5542 5540 5539 5538
5386 5399 5407 5415 5425 5433 5441 5447 5455 5462 5468 5475 5480 5484 5487 5492 5495 5500 5507 5510 5514 5517 5518 5521 5525 5527 5529 5530 5532 5535 5535 5537 5539 5541 5540 5541 5542 5540 5538 5536 5534 5532 5530 5529
5386 5395 5404 5414 5423 5430 5436 5444 5452 5455 5462 5467 5473 5477 5481 5486 5490 5494 5500 5503 5506 5508 5510 5515 5517 5519 5519 5521 5523 5526 5528 5529 5530 5531 5532 5533 5532 5532 5530 5528 5526 5524 5522 5521
5384 5393 5401 5411 5422 5427 5433 5439 5445 5450 5456 5462 5468 5473 5478 5481 5486 5489 5493 5496 5498 5502 5504 5507 5509 5510 5511 5513 5518 5521 5521 5520 5521 5522 5522 5524 5524 5523 5522 5520 5518 5516 5515 5514
5383 5391 5399 5407 5415 5422 5428 5435 5440 5446 5453 5456 5462 5468 5473 5476 5481 5483 5486 5488 5491 5494 5496 5499 5500 5502 5505 5510 5511 5511 5511 5512 5512 5513 5514 5514 5515 5514 5514 5512 5510 5508 5508 5508
5382 5390 5400 5408 5415 5420 5426 5430 5436 5441 5445 5451 5458 5464 5468 5473 5475 5478 5482 5482 5484 5487 5491 5490 5492 5497 5499 5499 5500 5502 5502 5502 5504 5504 5506 5506 5506 5506 5505 5504 5502 5501 5502 5501
5382 5391 5399 5407 5410 5414 5417 5423 5428 5432 5437 5444 5455 5460 5462 5467 5472 5474 5475 5476 5479 5482 5485 5485 5488 5491 5489 5490 5492 5492 5494 5495 5497 5498 5498 5499 5498 5498 5496 5495 5495 5495 5495 5494
5384 5392 5398 5402 5405 5409 5413 5416 5420 5424 5429 5436 5447 5453 5457 5461 5466 5469 5471 5472 5473 5476 5479 5479 5480 5482 5482 5482 5483 5484 5486 5488 5489 5490 5490 5490 5489 5488 5488 5488 5488 5488 5488 5488
5380 5386 5391 5396 5399 5402 5403 5407 5411 5418 5422 5426 5434 5444 5448 5455 5459 5462 5464 5465 5468 5471 5472 5472 5477 5476 5476 5477 5478 5479 5480 5481 5481 5482 5482 5481 5480 5481 5481 5482 5482 5482 5481 5481
5376 5380 5384 5387 5389 5393 5397 5403 5409 5414 5420 5427 5433 5439 5444 5450 5453 5456 5458 5460 5462 5463 5466 5470 5471 5471 5472 5472 5473 5475 5475 5473 5472 5472 5473 5474 5475 5475 5476 5476 5476 5476 5475 5475
5379 5382 5382 5385 5389 5394 5398 5405 5411 5416 5421 5428 5433 5438 5443 5445 5446 5449 5451 5454 5454 5458 5463 5465 5466 5466 5467 5468 5468 5467 5466 5466 5466 5467 5468 5469 5470 5470 5470 5470 5471 5470 5470 5470
5381 5383 5386 5389 5391 5395 5401 5407 5412 5416 5421 5425 5430 5434 5438 5439 5440 5442 5444 5448 5453 5457 5460 5460 5461 5462 5463 5463 5462 5461 5461 5461 5462 5463 5463 5464 5464 5464 5465 5466 5466 5466 5465 5464
5384 5387 5389 5391 5394 5399 5403 5410 5414 5417 5421 5425 5427 5431 5434 5438 5439 5442 5445 5450 5452 5454 5455 5455 5455 5457 5457 5457 5456 5456 5457 5457 5457 5458 5458 5459 5459 5460 5461 5461 5461 5461 5460 5459
Wind_Speed
69 65 63 60 58 57 60 56 59 56 57 57 56 55 47 48 45 43 44 47 48 45 48 38 41 36 42 38 37 36 40 38 34 35 36 35 32 33 32 33 32 33 35 31
66 66 65 63 60 59 60 59 58 55 58 61 56 53 51 52 49 44 45 49 50 47 42 40 40 44 43 41 39 41 40 37 36 35 36 35 33 33 32 32 33 34 36 38
65 64 64 63 62 61 62 61 59 54 60 57 56 55 54 52 52 49 46 45 46 46 45 44 40 40 38 37 40 38 39 37 37 34 30 35 36 33 37 35 35 33 38 37
63 62 60 63 61 61 63 64 60 57 55 51 55 57 55 55 53 51 48 50 49 46 44 41 41 38 39 39 39 39 38 38 36 35 34 33 34 38 37 36 35 39 37 40
60 61 58 59 61 60 62 63 59 58 54 50 54 58 59 53 53 54 52 50 46 46 44 42 37 39 41 41 41 37 37 38 36 36 35 37 39 36 34 34 34 37 38 39
59 51 48 49 55 59 62 61 61 58 54 54 53 47 51 52 54 53 45 44 51 48 46 44 45 41 42 41 37 36 36 35 36 38 38 37 37 31 31 31 32 36 39 43
53 50 55 51 57 52 54 57 56 56 53 53 48 44 47 52 42 49 49 47 47 51 44 42 41 42 40 38 37 36 35 35 37 37 33 34 33 31 29 30 31 34 38 34
55 52 59 54 53 50 45 53 54 54 53 49 47 46 46 44 50 53 52 52 49 42 44 42 38 38 39 38 37 36 34 32 30 32 31 30 33 31 28 28 28 33 34 29
65 56 54 52 55 47 40 45 50 53 51 50 45 45 47 49 52 49 47 43 43 39 38 38 38 37 36 37 35 31 30 29 32 30 30 32 28 29 29 29 31 31 26 24
65 56 55 55 42 39 39 37 45 47 42 46 48 43 38 36 40 38 38 38 37 38 37 38 38 37 36 33 30 27 28 30 31 31 32 32 29 31 28 29 29 28 27 29
66 66 56 55 52 43 38 38 42 44 45 42 43 45 40 39 42 46 45 43 41 40 38 36 33 34 32 31 28 27 28 30 30 30 31 29 27 27 29 29 27 25 26 23
68 65 53 52 54 50 49 45 43 43 42 34 42 43 43 43 41 37 42 43 39 37 36 34 33 33 30 29 28 30 32 30 28 27 28 28 29 31 30 30 27 23 26 24
56 45 42 44 48 47 41 32 29 40 39 33 35 42 40 35 34 34 27 28 28 25 33 26 27 26 28 29 28 30 31 30 31 30 27 27 31 30 33 31 27 24 26 24
50 46 40 41 41 32 34 28 26 37 39 32 31 35 37 33 31 31 30 26 24 23 21 22 24 25 29 30 31 29 30 31 27 28 25 27 29 31 31 27 27 27 26 24
47 47 40 37 34 33 40 31 40 35 38 39 39 34 36 34 33 31 31 29 27 23 26 29 30 33 33 31 32 32 31 29 28 26 28 32 28 30 30 30 29 28 29 29
46 40 44 51 49 47 46 39 38 31 28 25 27 32 38 37 33 33 31 31 32 27 29 34 33 33 34 34 33 31 32 28 25 28 33 34 30 29 31 30 30 29 30 25
43 47 45 45 44 48 38 35 32 28 25 22 22 24 27 30 32 32 31 31 31 32 34 32 33 34 35 33 32 31 29 25 28 32 32 29 29 28 29 30 28 31 27 26
51 54 51 52 47 40 35 33 33 32 30 28 27 22 24 28 29 31 30 30 31 31 31 32 32 35 35 31 28 23 23 27 31 29 29 29 30 29 28 28 29 28 25 26
53 53 51 47 44 33 27 26 27 26 27 22 24 25 26 26 26 20 21 29 33 34 34 34 35 34 29 23 22 22 24 28 29 28 31 31 30 29 28 30 30 25 24 25
37 37 36 34 30 28 27 28 28 26 27 28 23 23 21 25 25 26 27 30 31 30 27 28 30 25 23 24 23 24 29 28 30 32 31 33 32 33 32 32 29 24 24 22
41 38 37 36 32 31 35 37 36 36 39 36 31 37 32 26 23 20 20 20 23 23 21 23 22 20 21 23 27 29 30 30 30 31 31 32 36 35 34 32 23 22 23 22
35 36 38 39 40 42 44 45 50 53 51 51 52 45 36 28 24 19 20 18 20 17 15 19 19 10 14 17 22 23 24 25 26 26 28 31 34 33 28 21 21 20 21 23
41 41 39 42 44 49 56 58 59 48 30 23 34 39 28 30 26 26 23 25 20 18 20 21 10 13 18 19 19 19 19 21 25 28 32 31 27 21 19 18 19 21 22 21
33 33 35 37 29 27 24 21 17 16 21 17 26 25 24 25 25 27 31 29 23 23 19 10 14 16 16 19 19 20 23 25 25 23 20 18 18 18 16 18 20 21 19 18
13 16 20 25 17 26 25 20 17 18 19 21 20 22 21 21 31 34 35 33 32 26 14 8 13 16 16 17 19 20 16 13 14 15 16 16 15 16 18 18 18 17 16 17
10 7 4 17 18 22 20 20 16 19 23 21 21 24 21 19 21 24 27 25 19 10 11 14 14 18 18 19 21 18 15 11 10 11 13 14 15 16 16 16 16 16 17 18
23 13 8 12 18 16 15 18 20 26 25 23 23 23 17 14 17 18 13 8 8 10 13 19 22 20 18 21 19 14 14 12 12 13 14 14 14 15 15 16 16 18 18 20
Wind_Direction
250 250 250 248 247 247 246 243 246 239 238 238 241 246 249 244 244 245 247 246 247 248 251 253 253 250 257 255 260 263 263 267 268 272 275 273 269 271 274 276 282 283 286 288
244 244 243 244 243 242 243 245 244 240 235 234 237 240 241 243 244 240 246 246 244 244 246 249 253 249 260 259 258 256 264 268 269 271 271 267 270 270 269 272 280 283 283 287
239 239 239 238 237 236 238 239 241 242 242 235 236 239 238 241 240 241 241 248 245 244 248 253 250 249 252 253 254 258 263 264 266 264 257 270 275 280 284 290 288 288 289 293
235 236 236 237 235 233 232 233 236 237 242 243 242 237 238 239 243 243 243 246 247 247 252 252 252 252 254 255 260 259 262 262 261 262 263 266 273 279 283 286 290 290 296 290
229 232 232 236 235 233 232 231 233 235 236 240 243 239 238 234 239 239 240 246 250 252 253 250 249 254 256 257 261 259 260 260 262 264 265 269 274 275 281 286 288 290 291 293
225 221 221 229 239 232 231 230 232 233 232 234 237 242 242 239 237 239 244 236 243 246 245 243 247 256 258 260 259 255 257 257 262 264 268 272 274 280 285 288 290 294 297 300
213 207 204 217 225 233 232 234 228 234 233 233 233 237 237 234 227 239 233 237 243 248 250 252 253 252 251 252 254 257 256 256 261 267 268 271 278 285 288 288 295 301 299 303
204 210 208 206 218 229 232 229 226 229 234 235 233 233 225 221 229 231 233 241 247 249 248 250 245 248 254 256 253 252 253 257 259 261 268 277 284 288 289 297 297 298 300 294
201 208 217 207 212 215 228 226 226 226 226 228 235 235 234 237 234 237 243 247 248 247 242 239 242 247 251 248 249 245 246 249 258 266 270 273 282 286 290 292 301 305 300 301
200 203 207 208 207 216 223 232 226 226 226 231 230 233 235 236 241 239 240 242 242 244 246 243 238 231 237 239 245 241 247 253 257 262 269 272 276 280 291 296 302 295 298 295
197 200 201 214 216 218 224 233 223 229 228 228 231 229 229 230 229 233 240 240 242 240 238 229 227 231 237 236 240 251 251 255 260 265 268 275 278 289 286 291 298 289 298 286
193 196 205 208 212 217 219 228 219 220 226 230 234 234 238 230 226 229 230 231 230 227 227 231 233 238 235 242 240 245 251 258 261 262 269 278 281 279 285 289 294 284 297 276
188 191 190 192 209 212 210 215 225 221 222 226 237 233 233 237 239 239 234 233 233 234 230 232 234 239 237 243 246 249 252 252 260 266 276 273 275 281 285 289 292 283 295 275
197 197 189 192 195 202 208 220 220 213 214 211 233 240 237 236 241 241 244 244 240 225 227 232 232 237 241 244 248 250 253 261 269 269 273 270 274 278 282 291 291 281 291 271
196 200 204 209 208 205 212 209 205 217 214 213 216 215 244 244 238 236 236 236 233 234 236 238 244 247 250 250 251 255 261 262 264 268 268 268 271 276 281 287 287 282 281 281
199 195 201 196 203 206 203 209 203 207 217 218 221 233 229 232 237 233 228 230 230 229 238 243 246 251 254 253 256 258 262 265 268 262 262 264 271 275 284 285 280 288 288 268
188 195 196 190 199 193 196 202 210 216 220 229 238 253 248 241 234 235 235 237 238 239 244 249 252 254 256 254 257 258 267 272 265 261 261 266 272 280 281 281 281 290 276 264
187 187 188 193 199 206 210 212 217 224 230 239 244 257 246 247 241 237 238 242 247 246 247 248 250 253 256 254 257 266 264 257 256 259 260 265 269 276 281 285 286 286 273 268
192 199 207 211 213 221 216 214 218 223 225 232 244 252 241 238 233 232 237 247 250 253 253 252 251 251 255 271 264 252 250 251 253 257 262 265 268 273 287 288 291 277 271 271
192 195 197 196 200 206 215 220 221 228 239 234 236 243 240 238 235 235 243 246 248 249 252 251 250 256 258 259 260 255 249 246 248 255 262 263 269 277 285 287 282 271 269 266
202 202 206 212 222 231 237 239 244 249 250 245 247 259 247 232 224 225 230 241 242 243 246 251 253 261 268 262 253 246 247 247 251 259 263 267 272 277 284 278 265 265 263 272
232 230 229 228 234 239 246 250 255 258 260 250 254 239 234 219 212 211 232 235 227 233 242 251 272 268 258 251 247 246 245 250 256 263 265 269 277 278 271 256 259 261 270 275
232 235 236 238 249 253 257 260 259 257 235 221 216 219 213 210 213 219 221 228 230 237 243 254 264 239 239 242 243 249 255 261 265 268 271 272 267 252 247 252 259 270 271 272
228 234 236 233 226 213 219 197 195 191 190 192 207 207 211 210 222 227 231 238 239 236 233 235 223 232 240 233 242 252 269 269 264 255 248 243 244 246 251 264 268 266 267 272
165 180 199 196 195 196 192 165 173 193 197 201 200 209 217 231 234 237 242 242 241 232 212 219 234 233 238 254 266 289 277 261 249 242 241 244 250 259 263 263 262 264 270 270
125 134 188 207 192 196 196 190 182 184 189 197 194 199 207 215 224 226 225 221 219 219 214 238 255 247 256 266 287 287 273 255 248 246 245 254 259 260 257 257 262 265 267 270
72 80 115 149 156 166 160 154 169 177 173 174 180 174 179 201 210 210 217 226 250 237 239 250 245 249 258 275 279 266 261 254 256 260 260 258 253 251 255 257 261 266 271 276